Theta_e
298 298 298 298 298 298 298 297 298 299 300 301 301 303 303 304 304 305 307 309 312 311 314 317 320 329 334 336 341 343 345 345 344 344 344 344 344 344 344 343 342 340 339
296 296 296 296 297 296 296 296 296 296 298 299 299 300 300 301 302 304 305 306 311 312 311 314 316 319 326 334 337 340 343 344 344 343 342 341 343 343 343 342 340 339 338
295 294 295 295 295 295 295 295 295 295 295 296 297 298 299 300 300 300 303 304 306 309 312 311 313 316 318 321 331 337 340 342 342 343 342 340 341 342 342 341 339 339 337
293 293 293 293 294 293 293 293 293 293 294 294 295 296 297 298 299 300 301 302 304 305 308 309 310 311 314 318 324 328 337 339 340 341 341 341 340 341 342 341 339 338 337
292 292 292 292 292 292 292 292 292 291 292 292 294 294 295 295 297 298 300 301 302 303 304 307 309 309 309 311 314 318 328 335 336 338 340 340 340 340 341 340 339 338 337
291 291 291 291 291 291 291 291 290 291 291 292 290 291 294 296 297 298 299 300 302 303 304 305 306 306 310 310 312 315 317 321 333 335 337 339 340 340 339 340 339 338 337
290 290 290 290 290 289 290 289 289 289 290 291 289 291 291 293 295 298 300 302 301 302 304 304 305 305 307 312 311 314 317 320 325 330 335 337 339 340 339 340 340 338 337
290 289 288 288 289 288 288 289 289 287 289 290 286 286 287 289 296 293 294 295 298 298 299 301 303 303 305 304 308 313 315 316 321 329 331 335 337 340 340 340 340 339 337
289 288 288 288 287 288 287 288 288 287 285 287 288 285 283 283 285 291 292 292 295 295 295 295 297 298 299 303 306 307 310 315 315 319 329 332 334 338 340 340 341 339 338
288 288 287 287 287 287 287 287 287 286 285 283 286 287 288 286 282 281 289 289 291 292 293 293 295 297 297 298 301 301 304 307 311 313 315 328 331 334 338 340 340 339 338
288 287 287 286 286 286 286 286 285 285 286 284 284 285 285 285 285 282 280 284 288 290 292 291 291 293 294 298 300 302 304 307 307 308 311 311 322 330 333 337 339 340 338
287 286 286 285 285 284 284 285 285 284 284 284 284 284 283 282 282 283 282 282 282 285 287 289 289 290 292 294 295 297 302 304 305 305 307 309 310 313 329 332 337 338 339
285 285 285 284 283 283 283 283 283 283 283 283 283 283 284 284 284 284 283 281 279 282 283 286 287 290 291 292 293 295 297 302 306 307 307 307 308 310 313 326 330 334 333
283 284 282 282 282 282 281 281 281 282 282 282 281 282 282 283 283 283 281 279 276 278 280 281 286 287 289 290 293 294 294 299 304 305 304 305 306 308 308 320 325 328 330
281 281 281 280 280 280 280 280 280 280 280 281 281 281 281 282 283 283 282 281 278 274 275 279 280 285 287 288 290 292 295 297 301 303 303 305 306 307 309 311 323 326 328
281 280 279 279 279 278 278 278 278 279 278 279 279 279 279 280 280 281 280 280 280 277 274 278 280 281 285 285 286 287 289 290 295 299 302 303 306 307 308 309 316 323 326
279 278 278 277 277 277 277 276 276 276 276 276 276 277 276 277 277 277 278 278 278 278 275 277 279 281 281 282 284 285 287 290 292 296 299 303 303 303 305 306 313 320 323
278 277 276 276 275 275 275 275 274 274 273 273 273 274 273 274 274 274 275 274 275 276 275 273 276 277 277 280 281 281 286 289 289 294 300 301 303 303 304 305 309 317 318
276 276 275 274 274 274 273 273 273 272 272 272 273 273 273 273 273 273 273 273 273 275 275 273 273 276 276 278 278 281 285 287 290 295 300 300 300 302 303 304 306 314 315
274 274 274 273 273 272 272 272 272 272 272 273 274 274 274 274 273 273 273 273 273 272 273 272 273 273 275 277 278 278 282 285 289 296 296 296 297 299 302 303 304 310 312
273 273 272 272 272 272 272 272 272 272 273 273 274 274 274 274 275 276 274 273 273 272 272 272 272 273 274 275 277 280 282 285 291 291 292 293 296 299 301 302 301 306 309
272 271 271 271 271 271 274 274 274 273 273 272 272 273 274 274 275 276 277 278 277 274 273 272 272 272 273 275 277 278 281 281 284 289 287 289 293 295 299 303 305 308 311
271 270 270 271 270 271 273 275 275 273 273 273 273 273 273 274 275 274 275 276 277 278 279 277 275 275 276 278 279 278 279 280 284 288 287 285 288 289 294 296 304 309 311
269 270 270 269 269 270 273 274 274 273 273 273 273 273 273 273 274 274 274 273 274 275 276 277 276 277 278 279 279 280 280 282 283 287 287 282 287 289 292 294 298 308 309
269 269 269 269 268 267 271 273 274 273 273 273 274 274 274 274 276 277 275 273 273 274 278 279 280 282 283 283 282 280 278 280 279 284 287 284 286 288 290 293 298 308 309
268 268 268 268 268 267 271 274 275 273 272 273 274 275 275 273 275 276 273 272 271 273 275 276 278 279 281 281 283 281 280 277 282 282 286 284 286 287 288 294 303 309 310
Wind_Speed
4 4 4 5 5 6 7 8 8 8 9 10 10 10 10 10 10 7 6 13 14 19 22 23 23 24 25 25 23 21 20 19 20 22 22 23 25 26 26 27 26 25 24
3 3 4 5 5 6 7 8 8 8 7 8 9 10 10 10 10 11 8 9 15 18 21 22 23 24 26 26 25 24 23 21 20 21 23 24 27 28 28 29 28 27 25
3 4 3 4 5 6 8 7 8 7 7 7 9 9 9 10 10 12 10 9 10 14 15 20 21 22 23 26 28 27 26 24 21 20 23 24 27 28 28 26 26 27 26
3 3 4 5 6 6 7 8 8 8 8 8 8 8 8 10 12 12 11 10 9 9 10 16 20 21 23 25 26 29 28 26 25 22 22 23 27 29 28 23 26 25 25
3 4 4 4 6 6 7 7 7 8 8 8 9 9 9 10 12 11 12 12 12 10 8 12 14 14 20 24 27 29 31 29 28 26 23 23 25 30 32 30 31 29 28
2 3 4 5 5 5 6 6 9 9 9 9 12 11 10 10 10 10 10 9 9 10 10 10 8 7 13 19 22 26 29 33 30 28 28 25 26 29 34 34 34 33 30
1 3 4 5 5 6 8 9 8 10 8 9 10 8 9 14 12 9 8 5 9 10 9 9 7 7 7 16 20 22 25 29 31 33 29 29 27 28 32 35 29 33 35
4 4 5 6 6 6 9 9 8 7 7 5 7 9 8 8 6 11 10 10 7 9 11 11 11 12 10 9 14 22 22 26 31 31 33 31 30 29 31 37 38 40 38
4 6 7 6 6 7 7 8 7 8 7 6 7 5 6 5 13 5 10 10 9 8 10 14 14 14 16 14 14 16 21 21 21 29 33 33 32 31 31 35 39 42 40
6 6 6 6 7 6 8 8 6 7 8 8 6 6 8 9 5 13 4 11 13 12 12 11 14 12 16 13 21 25 25 28 26 27 27 34 34 34 32 34 38 40 46
6 6 6 6 7 7 8 9 9 8 7 8 7 6 8 9 10 9 18 10 11 10 10 11 14 14 16 17 15 17 25 27 26 28 27 25 32 34 34 33 37 40 45
4 5 6 6 7 8 9 8 9 10 9 9 8 9 9 8 8 9 12 19 17 13 12 13 12 14 14 13 17 27 28 30 31 34 30 27 29 30 35 35 37 41 41
5 6 5 6 7 9 10 10 11 11 11 10 11 9 9 10 10 11 12 16 18 15 12 12 14 14 14 14 16 23 27 33 29 25 25 27 28 30 31 37 36 38 36
6 6 6 7 9 10 10 10 9 9 11 9 13 11 10 10 11 11 12 12 19 19 18 23 12 14 14 14 19 27 21 33 33 33 32 32 31 30 29 35 35 35 38
6 6 7 9 10 11 11 12 8 11 11 11 11 12 11 10 11 12 12 12 14 19 23 22 18 13 13 15 19 19 19 25 31 33 33 33 32 32 30 29 36 34 34
6 7 8 10 10 10 11 11 10 11 12 10 9 13 13 11 13 12 13 13 14 16 19 20 21 17 17 14 20 23 23 34 32 34 31 32 27 26 26 27 32 35 35
7 8 9 9 10 10 10 11 12 13 14 14 14 14 16 15 12 12 13 13 15 15 18 19 19 19 21 21 20 19 22 19 18 35 36 31 26 29 28 24 31 37 36
8 8 7 9 10 10 10 11 12 12 13 15 15 16 17 12 16 15 13 18 17 17 16 23 21 16 22 21 21 25 21 17 19 28 32 26 26 28 27 24 29 34 34
7 7 8 10 10 9 10 10 12 13 14 14 15 16 17 16 17 14 16 17 15 15 15 17 19 15 17 17 20 21 21 19 17 34 23 26 26 26 25 24 24 35 37
6 7 8 9 9 9 10 11 12 13 14 15 16 16 17 18 19 19 18 19 17 16 16 16 16 17 16 16 16 18 17 14 19 14 12 17 22 25 26 24 25 33 38
6 7 8 9 9 8 8 10 12 14 15 16 16 17 18 20 29 28 17 18 18 16 14 15 15 16 15 15 16 14 15 16 11 4 8 10 11 13 14 18 22 34 34
6 6 8 9 9 7 13 16 17 13 16 17 17 17 18 23 23 32 34 37 30 19 20 16 16 19 21 17 16 16 14 16 7 3 1 6 6 9 7 11 22 34 42
7 8 8 7 8 10 15 16 20 13 15 16 18 19 18 15 20 21 27 35 33 35 35 22 21 20 20 18 17 19 18 16 15 7 2 10 6 10 9 9 31 38 43
7 7 6 6 8 9 15 17 20 14 15 18 19 19 21 23 21 23 22 21 22 21 21 18 21 21 21 20 19 18 20 20 14 11 8 8 4 10 7 11 35 39 43
5 5 5 6 7 9 15 17 18 13 16 19 18 19 20 22 26 35 24 23 22 21 24 36 39 39 37 36 31 15 17 14 15 12 6 6 4 7 5 13 17 41 45
6 5 5 6 8 9 13 18 18 11 16 15 19 18 23 25 34 35 23 21 23 20 19 18 19 23 28 24 34 25 16 18 10 8 7 6 3 2 4 9 15 22 25
Wind_Direction
31 9 3 351 347 349 344 338 335 335 330 329 324 318 313 308 302 297 294 297 294 290 288 285 282 285 279 276 275 274 267 260 254 248 232 220 212 210 203 194 190 188 185
32 5 359 349 340 350 341 327 326 323 320 318 313 314 310 305 301 293 288 291 290 284 284 284 284 281 281 281 275 273 271 265 253 250 245 229 215 210 209 199 193 189 188
24 359 347 335 345 340 318 318 318 317 319 314 310 309 305 304 299 294 289 282 287 282 277 285 284 282 281 275 278 275 272 270 263 252 249 241 223 211 210 210 189 191 191
16 348 345 343 343 323 325 323 326 325 317 316 311 304 297 289 282 280 277 275 274 284 290 293 291 292 292 291 285 275 275 270 270 260 249 248 232 216 208 208 189 196 200
12 346 338 322 324 316 317 316 319 318 308 309 300 300 294 289 278 273 276 276 277 278 278 281 278 278 282 284 285 282 279 271 267 267 257 245 240 229 213 199 191 188 194
351 328 322 318 310 304 303 304 304 307 305 306 313 304 287 280 278 275 272 274 270 272 270 272 277 277 265 278 281 283 277 274 270 264 264 252 241 234 223 207 199 189 191
305 303 296 288 286 285 291 296 301 310 313 321 309 318 298 281 265 250 249 288 311 288 282 281 290 278 278 275 284 285 282 275 270 266 262 262 247 239 229 214 202 188 191
234 253 266 275 278 292 290 291 300 304 308 315 320 298 322 313 35 344 299 280 305 315 302 301 304 298 297 302 276 275 278 283 287 270 264 260 255 243 231 220 204 194 193
226 243 254 273 292 288 285 294 294 299 296 306 302 293 310 301 332 251 321 289 292 326 314 304 298 296 289 281 283 281 289 287 291 296 271 260 258 252 238 223 220 198 194
243 250 257 267 272 277 277 281 286 289 292 291 294 257 258 280 310 312 281 309 295 285 304 297 292 305 294 288 273 271 268 270 273 280 304 273 258 254 248 233 222 210 191
241 249 258 271 278 279 277 281 282 279 279 276 272 277 270 262 255 264 292 282 283 281 289 299 292 290 298 296 294 275 270 273 275 276 276 292 286 253 251 245 225 218 193
245 251 259 262 272 275 277 288 289 284 277 275 273 268 257 257 267 276 283 289 284 284 283 280 287 280 270 269 270 275 279 272 271 269 264 271 272 294 255 248 240 224 214
252 252 261 277 284 291 296 294 285 277 274 271 271 270 268 265 271 268 271 282 292 290 281 270 274 272 271 266 267 271 270 275 262 258 265 269 268 269 289 254 248 241 226
250 269 283 287 280 284 284 281 278 280 283 280 280 275 275 272 271 268 265 274 284 285 285 279 271 271 273 276 272 266 270 275 264 260 265 263 261 262 267 269 247 243 226
242 258 268 276 280 281 284 286 284 287 288 287 279 276 274 271 268 265 262 256 259 277 282 288 281 277 289 285 277 282 277 266 266 259 253 257 255 255 253 278 243 238 222
236 253 262 265 272 278 283 284 283 280 281 277 276 276 273 271 269 267 265 262 255 257 267 275 274 288 278 292 292 288 272 271 278 271 262 258 251 255 258 265 261 235 224
228 242 254 270 274 277 279 279 276 280 281 283 281 280 279 280 278 276 272 268 265 260 263 265 273 283 280 280 278 272 274 276 277 270 251 245 251 258 254 269 260 229 217
225 243 255 263 268 270 274 277 284 286 285 283 281 280 279 278 277 276 274 270 267 268 271 273 274 279 277 273 278 282 278 264 258 272 254 249 248 250 250 260 263 215 205
222 237 247 255 263 272 276 280 280 281 279 278 278 277 278 277 274 271 268 268 268 270 269 268 277 278 280 278 281 278 270 272 267 262 247 258 256 253 244 256 266 219 203
225 241 247 258 268 275 279 282 285 284 284 282 281 279 279 275 275 274 268 266 265 264 264 264 268 271 269 275 270 272 269 263 265 242 245 257 260 245 240 241 266 212 197
226 238 255 264 268 269 273 282 287 288 287 287 285 284 280 276 276 275 273 269 263 259 257 258 263 267 268 274 271 265 268 284 236 216 258 263 258 242 235 234 255 219 199
221 238 247 253 267 273 280 287 287 288 295 294 290 286 284 281 277 279 279 276 267 261 255 253 257 258 263 267 275 279 287 292 269 218 276 267 289 287 256 243 251 222 197
215 234 245 256 273 281 282 290 302 299 293 288 287 287 286 278 280 278 276 277 277 274 268 267 265 263 269 269 273 278 278 278 294 276 295 277 263 268 271 292 268 212 194
214 235 252 273 274 282 290 305 310 300 293 289 285 285 284 285 280 279 277 271 267 268 261 259 260 263 263 264 262 267 272 280 272 270 242 262 249 265 280 269 287 190 183
231 244 254 267 278 282 295 314 313 303 293 293 291 289 288 288 294 296 287 280 269 261 261 264 266 265 252 251 256 260 255 255 264 255 206 256 233 273 276 278 287 184 183
236 251 268 279 273 274 300 320 317 304 301 303 300 303 305 301 301 304 295 288 282 276 277 262 262 267 268 258 256 249 253 259 261 278 245 222 274 39 306 234 242 181 181